Portada
METAR-TAF:

METAR-TAF

Aeropuertos :

Creston, Iowa, Estados Unidos

latitud: 41-01N, longitud: 094-22W, altitud: 394 m

Observación

El informe se hizo hace 15 minutos, a las 08:35 UTC
Viento 8 kt del este-noreste
Temperatura 21°C
Humedad 100%
Presión 1016 hPa
Visibilidad: 16.1 km
Cielo despejado

METAR: KCSQ 060835Z AUTO 07008KT 10SM CLR 21/21 A3000 RMK AO2

Hora: 03:50 (08:50 UTC)


TAF: falta

Observaciones y pronósticos meteorológicos de más de 4000 aeropuertos (mensajes METAR y TAF).

Los puntos amarillos y rojos representan las estaciones disponibles.

Ponga el ratón en el punto deseado para ver el nombre de la estación.

Haga clic para ver las observaciones y los pronósticos meteorológicos.

Para cambiar el mapa : haga clic en los botones verdes con una cruz de color negro para hacer un zoom, en el botón verde con un guión para alejar o en las flechas verdes para mapas adyacentes.


METAR-TAF: